Location: Gollag?dem
(17.0207°N, 80.7261°E)
Time: 06:41:45
(UTC+00:00)

Cosmos 1943 Rocket - Pass Details

Date: 03 August 2024
Orbit: 813 x 841 km, 71.0° (Epoch: 10 September)

Event Time Altitude Azimuth Distance (km) Brightness Sun altitude
Rises 23:13:27 0° 358° (N) 3,330 5.6 -15.2°
Reaches altitude 10° 23:16:08 10° 8° (N) 2,396 5.0 -14.6°
Maximum altitude 23:20:57 32° 70° (ENE) 1,375 4.1 -13.6°
Drops below altitude 10° 23:25:46 10° 132° (SE) 2,394 4.9 -12.5°
Sets 23:28:26 0° 142° (SE) 3,327 5.5 -11.9°
